Weather History for Georgetown, DE

Change the Weather History Date:

Friday, February 21, 2014

  Actual Average Record
Temperature  
Mean Temperature 55 °F 38 °F  
Max Temperature 71 °F 48 °F 71 °F (2014)
Min Temperature 39 °F 29 °F 8 °F (1959)
Degree Days  
Heating Degree Days 10 26  
Month to date heating degree days 601 590  
Since 1 July heating degree days 3147 3100  
Cooling Degree Days 0 0  
Month to date cooling degree days 0 0  
Year to date cooling degree days 0 0  
Growing Degree Days 5 (Base 50)    
Moisture  
Dew Point 49 °F    
Average Humidity 87    
Maximum Humidity 100    
Minimum Humidity 73    
Precipitation  
Precipitation 0.40 in 0.10 in 1.66 in (1981)
Month to date precipitation 4.13 2.07  
Year to date precipitation 7.17 4.99  
Sea Level Pressure  
Sea Level Pressure 29.86 in    
Wind  
Wind Speed 9 mph (SSW)    
Max Wind Speed 30 mph    
Max Gust Speed 42 mph    
Visibility 5 miles    
Events Fog , Rain , Thunderstorm    
T = Trace of Precipitation, MM = Missing Value Source: NWS Daily Summary

Daily Weather History Graph

Daily Weather History Graph

Search for Another Location

Airport:

Trip Planner

Search our weather history database for the weather conditions in past years. The results will help you decide how hot, cold, wet, or windy it might be!

Date:

Astronomy

Feb. 21, 2014 Rise Set
Actual Time 6:44 AM EST 5:45 PM EST
Civil Twilight 6:17 AM EST 6:12 PM EST
Nautical Twilight 5:46 AM EST 6:43 PM EST
Astronomical Twilight 5:16 AM EST 7:14 PM EST
Moon No Moon Rise 10:11 AM EST (2/21)
Length of Visible Light 11h 54m
Length of Day
11h 01m
Waning Gibbous, 61% of the Moon is Illuminated
Feb 21
Waning Gibbous
Feb 22
Last Quarter
Mar 1
New
Mar 8
First Quarter
Mar 16
Full

Hourly Weather History & Observations

Time (EST) Temp. Windchill Dew Point Humidity Pressure Visibility Wind Dir Wind Speed Gust Speed Precip Events Conditions
12:54 AM 44.1 °F 42.5 °F 39.0 °F 82% 29.96 in 10.0 mi ESE 3.5 mph - N/A   Clear
1:54 AM 44.1 °F - 39.9 °F 85% 29.94 in 9.0 mi Calm Calm - N/A   Clear
2:52 AM 42.8 °F - 39.2 °F 87% 29.92 in 7.0 mi Calm Calm - N/A   Partly Cloudy
2:54 AM 42.1 °F 40.2 °F 39.0 °F 89% 29.92 in 7.0 mi NE 3.5 mph - N/A   Partly Cloudy
3:54 AM 41.0 °F 39.0 °F 37.9 °F 89% 29.92 in 6.0 mi ENE 3.5 mph - N/A   Mostly Cloudy
4:03 AM 41.0 °F - 39.0 °F 93% 29.91 in 5.0 mi Calm Calm - N/A   Overcast
4:17 AM 42.1 °F - 39.9 °F 92% 29.92 in 2.0 mi Calm Calm - N/A   Overcast
4:25 AM 43.0 °F - 39.9 °F 89% 29.92 in 1.2 mi Calm Calm - N/A   Overcast
4:27 AM 43.0 °F - 41.0 °F 93% 29.92 in 0.8 mi Calm Calm - N/A   Mist
4:54 AM 43.0 °F - 42.1 °F 97% 29.91 in 0.5 mi Calm Calm - N/A Fog Fog
5:08 AM 50.0 °F - 48.0 °F 93% 29.91 in 1.2 mi South 5.8 mph - N/A   Overcast
5:13 AM 55.0 °F - 53.1 °F 93% 29.90 in 3.0 mi South 10.4 mph - N/A   Overcast
5:54 AM 61.0 °F - 59.0 °F 93% 29.91 in 10.0 mi SSW 13.8 mph - N/A   Mostly Cloudy
6:07 AM 62.1 °F - 59.0 °F 90% 29.90 in 10.0 mi SSW 17.3 mph 25.3 mph N/A   Mostly Cloudy
6:17 AM 62.1 °F - 57.9 °F 86% 29.89 in 10.0 mi SSW 15.0 mph 24.2 mph N/A   Scattered Clouds
6:54 AM 62.1 °F - 57.9 °F 86% 29.87 in 10.0 mi South 15.0 mph - N/A   Clear
7:54 AM 64.0 °F - 57.9 °F 80% 29.87 in 10.0 mi SSW 17.3 mph 27.6 mph N/A   Clear
8:54 AM 66.0 °F - 59.0 °F 78% 29.85 in 10.0 mi South 17.3 mph - N/A   Scattered Clouds
9:01 AM 64.9 °F - 59.0 °F 81% 29.85 in 10.0 mi South 13.8 mph 24.2 mph N/A   Mostly Cloudy
9:54 AM 66.0 °F - 59.0 °F 78% 29.84 in 10.0 mi South 12.7 mph - N/A   Overcast
10:54 AM 69.1 °F - 60.1 °F 73% 29.83 in 10.0 mi SSW 26.5 mph 39.1 mph N/A   Mostly Cloudy
11:54 AM 70.0 °F - 60.1 °F 71% 29.77 in 10.0 mi SSW 23.0 mph 39.1 mph N/A   Mostly Cloudy
12:18 PM 71.1 °F - 60.1 °F 68% 29.74 in 10.0 mi South 23.0 mph 34.5 mph N/A   Scattered Clouds
12:54 PM 70.0 °F - 60.1 °F 71% 29.73 in 10.0 mi South 17.3 mph 29.9 mph N/A   Mostly Cloudy
1:50 PM 68.0 °F - 60.8 °F 78% 29.76 in 1.2 mi West 19.6 mph 31.1 mph 0.15 in Rain Heavy Rain
1:52 PM 66.2 °F - 60.8 °F 83% 29.74 in 0.8 mi SW 26.5 mph 40.3 mph 0.22 in Rain Heavy Rain
1:54 PM 66.0 °F - 60.1 °F 81% 29.75 in 0.8 mi SW 23.0 mph 40.3 mph 0.22 in Rain Heavy Rain
2:00 PM 66.0 °F - 60.1 °F 81% 29.76 in 1.2 mi SW 20.7 mph 40.3 mph 0.00 in Rain Light Rain
2:03 PM 66.0 °F - 60.1 °F 81% 29.75 in 4.0 mi SW 20.7 mph 40.3 mph 0.03 in Rain Light Rain
2:06 PM 64.9 °F - 59.0 °F 81% 29.77 in 3.0 mi SW 28.8 mph 38.0 mph 0.05 in Rain , Thunderstorm Heavy Thunderstorms and Rain
2:21 PM 62.1 °F - 57.0 °F 84% 29.77 in 1.8 mi SSW 17.3 mph 26.5 mph 0.07 in Rain , Thunderstorm Light Thunderstorms and Rain
2:31 PM 61.0 °F - 57.0 °F 87% 29.76 in 4.0 mi SW 15.0 mph 26.5 mph 0.11 in Rain , Thunderstorm Heavy Rain
2:41 PM 61.0 °F - 55.9 °F 83% 29.75 in 4.0 mi SW 11.5 mph - 0.14 in Rain Rain
2:54 PM 60.1 °F - 57.0 °F 90% 29.76 in 7.0 mi SSW 12.7 mph - 0.15 in Rain Light Rain
3:54 PM 61.0 °F - 55.9 °F 83% 29.77 in 10.0 mi SSW 15.0 mph - 0.03 in   Mostly Cloudy
4:03 PM 61.0 °F - 55.9 °F 83% 29.77 in 10.0 mi SW 13.8 mph 25.3 mph N/A   Overcast
4:54 PM 54.0 °F - 48.0 °F 80% 29.82 in 10.0 mi NNW 6.9 mph - N/A   Overcast
5:54 PM 52.0 °F - 45.0 °F 77% 29.86 in 7.0 mi North 8.1 mph - 0.00 in Rain Light Rain
6:06 PM 50.0 °F - 45.0 °F 83% 29.86 in 8.0 mi North 4.6 mph - 0.00 in Rain Light Rain
6:54 PM 50.0 °F - 46.0 °F 86% 29.86 in 10.0 mi Calm Calm - 0.00 in   Overcast
7:54 PM 48.0 °F - 46.0 °F 93% 29.89 in 10.0 mi SSW 3.5 mph - N/A   Scattered Clouds
8:31 PM 46.9 °F - 45.0 °F 93% 29.89 in 1.8 mi Calm Calm - N/A   Clear
8:35 PM 46.0 °F - 44.1 °F 93% 29.89 in 0.8 mi Calm Calm - N/A   Clear
8:44 PM 46.0 °F - 43.0 °F 89% 29.90 in 1.2 mi Calm Calm - N/A   Clear
8:48 PM 44.6 °F 43.1 °F 42.8 °F 93% 29.90 in 3.0 mi NNW 3.5 mph - N/A   Clear
8:54 PM 46.9 °F - 44.1 °F 90% 29.91 in 5.0 mi NNW 4.6 mph - N/A   Clear
9:15 PM 44.1 °F - 42.1 °F 93% 29.93 in 1.5 mi Calm Calm - N/A   Clear
9:17 PM 42.1 °F - 41.0 °F 96% 29.93 in 0.8 mi Calm Calm - N/A   Mist
9:54 PM 42.1 °F - 39.9 °F 92% 29.94 in 0.2 mi Calm Calm - N/A Fog Fog
10:54 PM 41.0 °F - 39.0 °F 93% 29.96 in 0.2 mi Calm Calm - N/A Fog Fog
11:33 PM 39.9 °F - 37.9 °F 93% 29.96 in 1.2 mi Calm Calm - N/A   Mostly Cloudy
11:36 PM 39.9 °F - 37.9 °F 93% 29.96 in 3.0 mi Calm Calm - N/A   Mostly Cloudy
11:44 PM 39.0 °F - 37.0 °F 93% 29.97 in 3.0 mi Calm Calm - N/A   Scattered Clouds
11:51 PM 39.2 °F - 37.4 °F 93% 29.96 in 2.0 mi Calm Calm - N/A   Partly Cloudy
11:54 PM 39.0 °F - 37.0 °F 93% 29.96 in 2.5 mi Calm Calm - N/A   Clear